Regional Weather Roundup
Issued by NWS

Home | Current Version | Previous Version | Graphics & Text | Print | Product List | Glossary On
Versions: 1 2 3 4 5 6 7 8 9 10 11 12 13 14 15 16 17 18 19 20 21 22 23 24 25 26 27
000
ASUS45 KBOU 261607
RWRCO

WEATHER ROUNDUP FOR COLORADO
NATIONAL WEATHER SERVICE DENVER/BOULDER CO
1000 AM MDT THU MAY 26 2016

NOTE: "FAIR" INDICATES FEW OR NO CLOUDS BELOW 12000 FEET WITH NO
SIGNIFICANT WEATHER AND/OR OBSTRUCTIONS TO VISIBILITY.

COZ001>005-013-030-031-261700-
...NORTHWEST COLORADO...

CITY           SKY/WX    TMP DP  RH WIND       PRES   REMARKS
CRAIG          FAIR      50  35  56 SW3       30.01F
HAYDEN         FAIR      52  30  43 CALM      30.01F
MEEKER         FAIR      54  31  41 SW7       29.98F
MOUNT WERNER   NOT AVBL
STEAMBOAT SPGS FAIR      50  30  45 CALM      30.01F
WALDEN         FAIR      50  30  46 SW5       30.07F
$$

COZ006>008-011-261700-
...WEST CENTRAL VALLEYS...

CITY           SKY/WX    TMP DP  RH WIND       PRES   REMARKS
GRAND JUNCTION FAIR      63  28  26 CALM      29.90F
MONTROSE       FAIR      62  27  26 VRB6      29.95F
EAGLE          SUNNY     50  19  29 CALM      30.02F
RIFLE          FAIR      58  26  29 CALM      29.94F
DELTA          FAIR      67  20  17 SE5       29.93F
NUCLA          FAIR      64  19  17 SW10G17   29.98S
$$

COZ017>023-064>068-261700-
...SOUTHWEST COLORADO...

CITY           SKY/WX    TMP DP  RH WIND       PRES   REMARKS
DURANGO        FAIR      55  27  34 W9        30.01F
CORTEZ         FAIR      62  26  25 S13       29.97F
PAGOSA SPRINGS FAIR      56  20  25 SW6       30.03F
TELLURIDE      FAIR      50  20  30 SE9       30.08F
WOLF CREEK PAS FAIR      36  21  55 S9        30.21F
$$

COZ009-010-012-014-032>034-037-058>063-261700-
...CENTRAL COLORADO...

CITY           SKY/WX    TMP DP  RH WIND       PRES   REMARKS
ASPEN          FAIR      53  27  36 N9        29.99F
BUENA VISTA    PTSUNNY   55  14  19 W3        30.02F
COPPER MTN     NOT AVBL
BERTHOUD PASS  FAIR      32  21  64 E13G26    30.21F WCI  22
COTTONWOOD PAS PTSUNNY   50  14  23 E6        30.10F
GUNNISON       FAIR      52  25  35 SW3       30.05F
KREMMLING      FAIR      50  25  37 CALM      30.04F
LEADVILLE      CLOUDY    47  13  25 VRB6      30.09F
MONARCH PASS   CLOUDY    34  19  55 NW5       30.29F WCI  30
SALIDA         CLOUDY    53  20  27 CALM      30.09F
SUNLIGHT       FAIR      41  19  42 CALM      30.17S
WILKERSON PASS FAIR      37  23  56 CALM      30.21S
$$

COZ069>075-261700-
...SAN LUIS VALLEY/SANGRE DE CRISTO MOUNTAINS...

CITY           SKY/WX    TMP DP  RH WIND       PRES   REMARKS
ALAMOSA        FAIR      58  24  27 VRB3      30.00F
LA VETA PASS   CLOUDY    43  32  65 NE6       30.12F
SAGUACHE       FAIR      57  23  26 SE5       30.02F
$$

COZ035-036-038>040-261700-
...NORTHERN COLORADO FRONT RANGE...

CITY           SKY/WX    TMP DP  RH WIND       PRES   REMARKS
DENVER INTL AP PTSUNNY   60  41  49 VRB5      29.97F
DMNS CITY PARK   N/A     61  40  46 E10G18    29.96F
AURORA         PTSUNNY   60  40  48 E8        29.98F
FRONT RANGE AP PTSUNNY   59  39  47 E6        29.99F
ERIE MUNI ARPT PTSUNNY   64  36  35 SE7       29.96F
BOULDER MUN AP FAIR      63  36  36 N3        29.96F
CENTENNIAL     PTSUNNY   59  39  47 SE7       29.98F
BROOMFIELD     PTSUNNY   63  37  39 E12       29.99F
FORT COLLINS   FAIR      57  45  62 CALM      29.97F
LONGMONT       FAIR      67  39  35 CALM      29.97F
$$

COZ041-046-047-076>085-087-088-261700-
...PIKES PEAK/PALMER DIVIDE AND SOUTHERN FOOTHILLS...

CITY           SKY/WX    TMP DP  RH WIND       PRES   REMARKS
COLO. SPRINGS  PTSUNNY   58  44  60 E5        30.01F
A. F. ACADEMY  PTSUNNY   57  43  58 E13       30.00F
SCHRIEVER AFB  NOT AVBL
ELLICOTT       PTSUNNY  N/A N/A N/A NE7       29.97F
FALCON         CLOUDY    58  44  60 NE3       30.04F
FORT CARSON    FAIR      61  47  60 N3        29.97F
LIMON          FAIR      63  45  51 E7        29.96F
MONUMENT HILL  FAIR      54  41  62 CALM      30.04F
TRINIDAD       FAIR      60  42  51 VRB3      29.95F
$$

COZ042>045-048>051-090-091-261700-
...NORTHEAST COLORADO...

CITY           SKY/WX    TMP DP  RH WIND       PRES   REMARKS
GREELEY ARPT   PTSUNNY   63  43  48 NE5       29.96F
AKRON          FAIR      64  39  39 NE7       29.95F
BURLINGTON     FAIR      71  48  43 NE17      29.90F
WRAY           FAIR      70  41  35 NE13      29.91F
STERLING       PTSUNNY   63  46  55 E3        29.93F
HOLYOKE        NOT AVBL
FORT MORGAN    CLOUDY    63  37  37 NE3       29.96S THUNDER
$$

COZ086-089-092>099-261700-
...SOUTHEAST COLORADO...

CITY           SKY/WX    TMP DP  RH WIND       PRES   REMARKS
PUEBLO         FAIR      68  48  48 MISG      29.92F
LA JUNTA       FAIR      66  50  56 NW9       29.88F
LAMAR          FAIR      67  54  63 W6        29.83F
SPRINGFIELD      N/A     68  53  58 NW16      29.84F
$$




USA.gov is the U.S. government's official web portal to all federal, state and local government web resources and services.